Main page
METAR-TAF:

METAR-TAF

Airports :

Campo dos Bugres Airport

Caxias do Sul, Rio Grande do Sul, Brazil

latitude: 29-11-44S, longitude: 051-11-23W, elevation: 754 m

Current weather observation

The report was made 11 hours and 12 minutes ago, at 23:00 UTC
Wind 6 kt from the North/Northeast
Temperature 20°C
Humidity 83%
Pressure 1012 hPa
Visibility: 8000 m
light rain

METAR: SBCX 132300Z 03006KT 8000 -RA NSC 20/17 Q1012

Time: 08:12 (10:12 UTC)


TAF: missing

Weather observations and forecasts of more than 4000 airports (METAR and TAF reports).

The available stations are represented by yellow and red dots on the map.

Hover mouse over dot to see the name of the station.

Then click to see weather observations and forecasts.

To change the map : click on the green buttons with a black cross to zoom in, on the green button with a dash to zoom out, or on the green arrows for adjacent maps.


METAR-TAF: